CW4541 Weather Reports


Display with metric or nautical units.
time (UTC)temp
F
wind
direction
speed
MPH
gust
MPH
rain 1hr
in
rain 24hr
in
rain mn
in
humidity
%
barometer
mb
20260903170607 70 14 2.0 8.0 0.00 0.00 0.00 29 1022.1
20260903170112 70 13 3.0 10.0 0.00 0.00 0.00 27 1022.1
20260903160607 66 14 2.0 12.0 0.00 0.00 0.00 34 1022.0
20260903160112 66 13 3.0 12.0 0.00 0.00 0.00 32 1022.1
20260903150606 62 166 2.0 10.0 0.00 0.00 0.00 49 1021.7
20260903140606 56 172 1.0 6.0 0.00 0.00 0.00 61 1021.9
20260903140112 56 189 0.0 5.0 0.00 0.00 0.00 62 1021.9
20260903130609 51 202 0.0 1.0 0.00 0.00 0.00 68 1021.4
20260903130111 51 223 0.0 1.0 0.00 0.00 0.00 67 1021.3
20260903120112 51 203 0.0 2.0 0.00 0.00 0.00 67 1021.2
20260903110606 51 142 1.0 6.0 0.00 0.00 0.00 69 1020.7
20260903110112 51 132 0.0 6.0 0.00 0.00 0.00 71 1020.7
20260903100606 51 200 0.0 1.0 0.00 0.00 0.00 71 1020.8
20260903090606 52 186 0.0 2.0 0.00 0.00 0.00 70 1020.3
20260903090112 52 196 0.0 2.0 0.00 0.00 0.00 70 1020.4
20260903080606 52 192 0.0 1.0 0.00 0.00 0.00 71 1020.6
20260903080111 52 199 0.0 1.0 0.00 0.00 0.00 71 1020.7
20260903070606 54 196 0.0 0.0 0.00 0.00 0.00 66 1020.5
20260903070112 54 196 0.0 0.0 0.00 0.00 0.00 65 1020.5
20260903060111 55 182 0.0 0.0 0.00 0.00 0.00 63 1020.1
20260903050606 57 28 0.0 1.0 0.00 0.00 0.00 59 1020.1
20260903040606 57 39 0.0 1.0 0.00 0.00 0.00 60 1020.0
20260903030606 60 30 0.0 0.0 0.00 0.00 0.00 52 1019.7
20260903030112 60 28 0.0 0.0 0.00 0.00 0.00 50 1019.6
20260903020607 63 20 0.0 3.0 0.00 0.00 0.00 48 1019.2
20260903020111 63 21 1.0 3.0 0.00 0.00 0.00 47 1019.1
20260903010606 67 59 3.0 13.0 0.00 0.00 0.00 45 1019.3
20260903010112 67 136 3.0 13.0 0.00 0.00 0.00 44 1019.2
20260903000606 70 20 3.0 9.0 0.00 0.00 0.00 38 1019.4
20260903000112 70 18 2.0 12.0 0.00 0.00 0.00 36 1019.4
20260902230606 78 202 2.0 8.0 0.00 0.00 0.00 26 1019.2
20260902230111 78 216 1.0 8.0 0.00 0.00 0.00 26 1019.1
20260902220605 77 169 1.0 7.0 0.00 0.00 0.00 27 1020.0
20260902220112 77 235 1.0 7.0 0.00 0.00 0.00 28 1020.1
20260902210606 76 20 2.0 10.0 0.00 0.00 0.00 26 1020.7
20260902210111 76 20 3.0 10.0 0.00 0.00 0.00 26 1020.6
20260902200606 73 19 1.0 10.0 0.00 0.00 0.00 30 1021.0
20260902200111 74 14 1.0 10.0 0.00 0.00 0.00 29 1021.2
20260902190605 73 13 3.0 9.0 0.00 0.00 0.00 33 1022.0
20260902190111 73 13 2.0 9.0 0.00 0.00 0.00 34 1021.9
20260902180606 70 14 3.0 10.0 0.00 0.00 0.00 37 1022.6